Regional Weather Roundup
Issued by NWS

Home | Current Version | Previous Version | Graphics & Text | Print | Product List | Glossary On
Versions: 1 2 3 4 5 6 7 8 9 10 11 12 13 14 15 16 17 18 19 20 21 22 23 24 25 26 27
000
ASUS45 KSLC 240210
RWRUT

UTAH REGIONAL WEATHER ROUNDUP
NATIONAL WEATHER SERVICE SALT LAKE CITY UT
700 PM MST THU FEB 23 2017

UTZ001>011-023>025-240300-

NORTHERN UTAH

CITY           SKY/WX    TMP DP  RH WIND       PRES   REMARKS
BRIGHAM CITY     N/A     29  25  84 NW9       29.87S WCI  21
HILL AFB       MOCLDY    27  21  80 W8        29.85R WCI  18
LOGAN          LGT SNOW  30  24  78 N7        29.86R WCI  23
OGDEN          FLURRIES  28  26  92 CALM      29.85R
SALT LAKE CITY FLURRIES  30  23  75 SW8       29.88R WCI  22
TOOELE VALLEY  MOCLDY    30  27  86 SE6       29.90R WCI  24
WENDOVER       PTCLDY    30  10  43 NW21G33   29.88S WCI  17
HEBER CITY     CLOUDY    25  16  68 NW3       29.80R
WEST JORDAN    CLOUDY    31  29  94 CALM      29.88S

$$

UTZ011>015-024>027-240300-

CENTRAL/NORTHEAST UTAH

CITY           SKY/WX    TMP DP  RH WIND       PRES   REMARKS
PROVO AIRPORT  CLOUDY    27  24  89 S6        29.89R WCI  20
MOAB/CANYONLAN PTCLDY    31  18  58 W5        29.77R WCI  26
DELTA          MOCLDY    28  27  93 CALM      29.87S
PRICE          PTCLDY    27  10  49 NW15      29.77R WCI  15
ROOSEVELT      CLOUDY    30  23  74 W6        29.78R WCI  24
VERNAL         FLURRIES  26  22  84 NE3       29.77R

$$

UTZ013>016-019>022-027-240300-

SOUTHERN UTAH

CITY           SKY/WX    TMP DP  RH WIND       PRES   REMARKS
BRYCE CANYON   MOCLDY    20   8  60 NW10      29.79R WCI   9
CEDAR CITY     CLOUDY    31  13  47 CALM      29.83R
MILFORD        CLOUDY    28  24  85 E6        29.85S WCI  22
ST GEORGE      CLOUDY    46  11  24 W9        29.89
HANKSVILLE     PTCLDY    36   9  32 NW13      29.81S WCI  27
BLANDING       MOCLDY    32   7  36 W9        29.85R WCI  24

$$

REGIONAL REPORTS     COLORADO/ARIZONA

CITY           SKY/WX    TMP DP  RH WIND       PRES   REMARKS
CRAIG, CO      CLOUDY    23  18  81 W12       29.73R WCI  12
GRAND JUNCTION CLEAR     30  23  75 N9        29.78S WCI  22
RIFLE, CO      CLOUDY    30  19  63 N9        29.76R WCI  22
MONTROSE, CO   CLEAR     30   5  34 VRB3      29.78R
CORTEZ, CO     CLEAR     29   9  43 SW3       29.78R
COLORADO CITY    N/A     36  10  35 W7        29.90R WCI  30
PAGE, AZ       PTCLDY    41  -5  14 W10G18    29.82R
GRAND CANYON   CLEAR     28   9  44 VRB5      29.85R WCI  23
KINGMAN, AZ    CLEAR     44 -13   8 W10       29.91S
FLAGSTAFF, AZ  MOCLDY    31  14  49 W8        29.83R WCI  23

$$

REGIONAL REPORTS    NEVADA/IDAHO/WYOMING

CITY           SKY/WX    TMP DP  RH WIND       PRES   REMARKS
LAS VEGAS, NV  PTCLDY    51   5  15 N16       29.91R
ELY, NY        PTCLDY    16   7  67 VRB6      29.88R WCI   7
ELKO, NV       MOCLDY    25  11  55 NW7       29.95R WCI  17
POCATELLO, ID  LGT SNOW  25  23  92 SW23      29.83S FOG     WCI  10
BURLEY, ID     LGT SNOW  27  22  81 SW18G24   29.87R WCI  14
FORT BRIDGER,  CLOUDY    19  19 100 W13       29.77R WCI   7
EVANSTON, WY   CLOUDY    18  13  80 SW16      29.74R WCI   3
ROCK SPRINGS,  CLOUDY    19  12  74 NE24G30   29.71R WCI   2

$$




USA.gov is the U.S. government's official web portal to all federal, state and local government web resources and services.